QPF
0.00 0.00 0.01 0.01 0.02 0.03 0.03 0.04 0.09 0.10 0.08 0.07 0.10 0.12 0.13 0.12 0.10 0.11 0.10 0.08 0.09 0.09 0.09 0.11 0.14 0.12 0.12 0.12 0.10 0.09 0.09 0.08 0.08 0.10 0.13 0.14 0.12 0.11 0.10 0.08 0.06 0.05 0.07
0.00 0.00 0.00 0.01 0.02 0.04 0.04 0.04 0.06 0.09 0.08 0.07 0.07 0.10 0.11 0.11 0.10 0.13 0.15 0.10 0.09 0.08 0.08 0.11 0.11 0.11 0.13 0.11 0.09 0.08 0.08 0.07 0.06 0.09 0.14 0.16 0.14 0.10 0.09 0.08 0.07 0.05 0.05
0.00 0.00 0.00 0.01 0.02 0.03 0.04 0.04 0.04 0.07 0.08 0.08 0.06 0.06 0.09 0.08 0.11 0.13 0.15 0.13 0.10 0.08 0.08 0.08 0.09 0.09 0.07 0.10 0.09 0.08 0.10 0.10 0.07 0.07 0.10 0.16 0.23 0.17 0.12 0.07 0.06 0.06 0.05
0.00 0.00 0.00 0.01 0.02 0.03 0.03 0.04 0.04 0.05 0.08 0.06 0.06 0.06 0.08 0.09 0.11 0.11 0.13 0.14 0.13 0.10 0.07 0.06 0.07 0.07 0.07 0.09 0.08 0.09 0.09 0.11 0.10 0.07 0.07 0.08 0.11 0.14 0.15 0.11 0.08 0.09 0.06
0.00 0.00 0.00 0.00 0.01 0.01 0.02 0.03 0.04 0.06 0.08 0.06 0.06 0.07 0.07 0.07 0.07 0.07 0.11 0.11 0.11 0.08 0.06 0.06 0.08 0.07 0.07 0.07 0.09 0.09 0.07 0.09 0.08 0.07 0.06 0.06 0.09 0.10 0.13 0.13 0.11 0.09 0.05
0.00 0.00 0.00 0.00 0.00 0.01 0.01 0.02 0.03 0.05 0.05 0.05 0.05 0.06 0.07 0.08 0.07 0.06 0.08 0.08 0.07 0.05 0.04 0.05 0.07 0.08 0.07 0.07 0.07 0.08 0.05 0.06 0.05 0.04 0.03 0.05 0.06 0.08 0.09 0.10 0.09 0.10 0.07
0.00 0.00 0.00 0.00 0.00 0.00 0.00 0.01 0.01 0.03 0.04 0.04 0.03 0.04 0.06 0.07 0.06 0.06 0.08 0.08 0.05 0.04 0.05 0.05 0.07 0.07 0.07 0.07 0.07 0.07 0.07 0.05 0.05 0.05 0.05 0.05 0.05 0.08 0.08 0.09 0.10 0.10 0.08
0.00 0.00 0.00 0.00 0.00 0.00 0.00 0.00 0.01 0.02 0.03 0.03 0.03 0.03 0.04 0.05 0.05 0.07 0.06 0.06 0.05 0.05 0.04 0.05 0.05 0.04 0.05 0.05 0.06 0.07 0.07 0.08 0.07 0.07 0.08 0.07 0.06 0.07 0.07 0.08 0.10 0.10 0.09
0.00 0.00 0.00 0.00 0.00 0.00 0.00 0.00 0.01 0.01 0.02 0.02 0.02 0.03 0.03 0.03 0.05 0.06 0.06 0.06 0.05 0.04 0.04 0.04 0.04 0.04 0.05 0.06 0.06 0.06 0.06 0.07 0.07 0.07 0.08 0.07 0.05 0.05 0.07 0.06 0.06 0.08 0.08
0.00 0.00 0.00 0.00 0.00 0.00 0.00 0.00 0.00 0.01 0.02 0.02 0.02 0.02 0.02 0.03 0.03 0.04 0.04 0.04 0.03 0.03 0.03 0.04 0.05 0.06 0.05 0.05 0.06 0.06 0.07 0.07 0.08 0.07 0.06 0.05 0.04 0.06 0.04 0.04 0.05 0.06 0.08
0.00 0.00 0.00 0.00 0.00 0.00 0.00 0.00 0.00 0.01 0.01 0.01 0.02 0.03 0.03 0.02 0.02 0.03 0.03 0.03 0.03 0.03 0.04 0.05 0.05 0.04 0.04 0.05 0.07 0.06 0.07 0.07 0.08 0.08 0.06 0.05 0.04 0.05 0.04 0.04 0.04 0.05 0.06
0.00 0.00 0.00 0.00 0.00 0.00 0.00 0.00 0.00 0.00 0.00 0.00 0.01 0.02 0.02 0.02 0.02 0.03 0.03 0.03 0.03 0.03 0.04 0.05 0.05 0.04 0.06 0.07 0.07 0.06 0.06 0.08 0.07 0.06 0.06 0.05 0.05 0.05 0.04 0.04 0.04 0.04 0.05
0.00 0.00 0.00 0.00 0.00 0.00 0.00 0.01 0.00 0.00 0.00 0.00 0.01 0.02 0.02 0.02 0.02 0.02 0.02 0.02 0.03 0.03 0.04 0.06 0.06 0.06 0.07 0.07 0.06 0.07 0.07 0.09 0.08 0.08 0.07 0.05 0.05 0.04 0.03 0.03 0.04 0.04 0.04
0.00 0.00 0.00 0.00 0.00 0.00 0.00 0.00 0.00 0.01 0.01 0.01 0.01 0.02 0.02 0.02 0.02 0.02 0.02 0.02 0.02 0.02 0.03 0.05 0.05 0.05 0.06 0.07 0.07 0.08 0.09 0.09 0.08 0.07 0.06 0.05 0.05 0.05 0.05 0.05 0.05 0.06 0.05
0.01 0.00 0.00 0.00 0.00 0.00 0.00 0.00 0.00 0.01 0.01 0.02 0.01 0.01 0.02 0.03 0.03 0.02 0.01 0.01 0.01 0.02 0.03 0.03 0.03 0.04 0.05 0.05 0.06 0.06 0.06 0.07 0.07 0.07 0.08 0.07 0.07 0.05 0.05 0.04 0.05 0.06 0.05
0.01 0.00 0.00 0.00 0.00 0.00 0.00 0.00 0.00 0.01 0.01 0.02 0.02 0.01 0.02 0.03 0.02 0.02 0.02 0.02 0.01 0.02 0.02 0.02 0.03 0.03 0.02 0.03 0.02 0.02 0.03 0.04 0.04 0.05 0.08 0.07 0.05 0.04 0.03 0.03 0.03 0.04 0.05
0.00 0.01 0.00 0.00 0.00 0.00 0.00 0.00 0.00 0.00 0.01 0.01 0.01 0.01 0.02 0.02 0.02 0.02 0.03 0.02 0.01 0.01 0.02 0.02 0.03 0.03 0.02 0.02 0.01 0.01 0.01 0.02 0.03 0.05 0.07 0.05 0.04 0.05 0.04 0.04 0.02 0.02 0.04
0.00 0.00 0.00 0.00 0.00 0.01 0.01 0.00 0.00 0.00 0.01 0.01 0.01 0.01 0.01 0.01 0.02 0.03 0.02 0.02 0.02 0.02 0.02 0.02 0.02 0.03 0.03 0.02 0.01 0.01 0.01 0.01 0.02 0.03 0.04 0.06 0.05 0.04 0.05 0.05 0.04 0.04 0.04
0.00 0.00 0.00 0.00 0.01 0.01 0.01 0.01 0.00 0.01 0.01 0.01 0.01 0.01 0.01 0.01 0.01 0.02 0.02 0.02 0.02 0.02 0.01 0.02 0.02 0.02 0.03 0.01 0.01 0.00 0.01 0.02 0.02 0.02 0.03 0.04 0.04 0.04 0.04 0.03 0.03 0.04 0.04
0.00 0.00 0.00 0.01 0.01 0.01 0.02 0.01 0.01 0.01 0.00 0.00 0.01 0.01 0.01 0.01 0.01 0.01 0.02 0.03 0.03 0.02 0.01 0.02 0.02 0.02 0.02 0.02 0.01 0.01 0.01 0.01 0.02 0.03 0.04 0.04 0.03 0.04 0.02 0.02 0.02 0.03 0.04
0.01 0.01 0.01 0.01 0.01 0.01 0.02 0.03 0.02 0.01 0.01 0.01 0.01 0.01 0.01 0.01 0.02 0.03 0.03 0.03 0.03 0.03 0.02 0.02 0.03 0.03 0.03 0.03 0.02 0.02 0.02 0.02 0.03 0.03 0.03 0.03 0.03 0.04 0.03 0.02 0.01 0.01 0.02
0.01 0.01 0.01 0.01 0.01 0.02 0.02 0.02 0.02 0.02 0.01 0.02 0.02 0.02 0.02 0.01 0.02 0.03 0.03 0.03 0.04 0.04 0.03 0.03 0.02 0.02 0.03 0.02 0.02 0.01 0.01 0.01 0.01 0.02 0.01 0.01 0.01 0.01 0.02 0.01 0.01 0.01 0.01
0.00 0.00 0.01 0.01 0.02 0.03 0.03 0.03 0.03 0.03 0.03 0.03 0.04 0.03 0.03 0.02 0.02 0.03 0.03 0.04 0.04 0.04 0.03 0.03 0.02 0.01 0.01 0.01 0.00 0.00 0.00 0.00 0.00 0.01 0.01 0.02 0.02 0.02 0.01 0.02 0.02 0.01 0.01
0.00 0.00 0.01 0.02 0.03 0.04 0.04 0.04 0.05 0.04 0.04 0.04 0.04 0.04 0.04 0.02 0.03 0.03 0.03 0.03 0.03 0.03 0.04 0.04 0.04 0.03 0.02 0.01 0.01 0.01 0.01 0.00 0.00 0.01 0.01 0.02 0.02 0.02 0.02 0.02 0.02 0.02 0.02
0.00 0.00 0.01 0.02 0.02 0.03 0.03 0.04 0.05 0.05 0.05 0.04 0.05 0.04 0.04 0.03 0.04 0.04 0.03 0.03 0.03 0.03 0.03 0.03 0.03 0.03 0.03 0.03 0.03 0.02 0.01 0.01 0.00 0.00 0.01 0.01 0.01 0.01 0.02 0.03 0.03 0.03 0.03
0.00 0.00 0.01 0.01 0.02 0.02 0.02 0.02 0.03 0.05 0.08 0.07 0.07 0.06 0.05 0.05 0.04 0.04 0.05 0.04 0.04 0.03 0.02 0.02 0.03 0.03 0.04 0.04 0.04 0.03 0.02 0.02 0.02 0.01 0.00 0.01 0.01 0.01 0.02 0.02 0.03 0.03 0.04
MSLP
1008.98 1009.15 1009.28 1009.38 1009.47 1009.59 1009.76 1010.00 1010.30 1010.64 1010.96 1011.23 1011.42 1011.51 1011.49 1011.38 1011.23 1011.07 1010.93 1010.85 1010.82 1010.84 1010.90 1010.96 1011.02 1011.06 1011.07 1011.07 1011.07 1011.09 1011.12 1011.18 1011.26 1011.34 1011.41 1011.44 1011.43 1011.38 1011.30 1011.23 1011.18 1011.19 1011.29
1008.67 1008.93 1009.12 1009.24 1009.33 1009.43 1009.57 1009.78 1010.07 1010.42 1010.78 1011.12 1011.39 1011.55 1011.59 1011.53 1011.40 1011.24 1011.10 1011.01 1010.99 1011.04 1011.13 1011.25 1011.35 1011.42 1011.45 1011.45 1011.43 1011.41 1011.42 1011.46 1011.53 1011.63 1011.71 1011.78 1011.80 1011.78 1011.71 1011.63 1011.56 1011.55 1011.61
1008.22 1008.58 1008.86 1009.06 1009.18 1009.29 1009.41 1009.60 1009.88 1010.23 1010.62 1011.00 1011.33 1011.55 1011.66 1011.64 1011.55 1011.41 1011.28 1011.20 1011.20 1011.26 1011.39 1011.54 1011.68 1011.78 1011.82 1011.82 1011.79 1011.74 1011.73 1011.75 1011.82 1011.93 1012.05 1012.15 1012.23 1012.25 1012.22 1012.17 1012.11 1012.09 1012.14
1007.59 1008.07 1008.48 1008.77 1008.98 1009.12 1009.26 1009.45 1009.71 1010.06 1010.46 1010.87 1011.24 1011.53 1011.69 1011.74 1011.68 1011.58 1011.47 1011.41 1011.42 1011.51 1011.66 1011.84 1012.01 1012.13 1012.19 1012.19 1012.15 1012.09 1012.06 1012.07 1012.14 1012.26 1012.41 1012.56 1012.68 1012.76 1012.78 1012.77 1012.74 1012.73 1012.78
1006.82 1007.42 1007.95 1008.37 1008.67 1008.89 1009.06 1009.26 1009.53 1009.87 1010.28 1010.72 1011.13 1011.47 1011.70 1011.80 1011.80 1011.74 1011.67 1011.63 1011.66 1011.77 1011.93 1012.13 1012.32 1012.47 1012.55 1012.56 1012.52 1012.47 1012.42 1012.43 1012.50 1012.62 1012.79 1012.97 1013.13 1013.26 1013.33 1013.35 1013.35 1013.36 1013.40
1005.95 1006.63 1007.28 1007.83 1008.24 1008.54 1008.77 1009.00 1009.28 1009.64 1010.06 1010.53 1010.98 1011.37 1011.66 1011.83 1011.89 1011.88 1011.85 1011.84 1011.89 1012.00 1012.18 1012.40 1012.61 1012.78 1012.88 1012.92 1012.90 1012.86 1012.82 1012.82 1012.89 1013.01 1013.18 1013.37 1013.55 1013.69 1013.78 1013.83 1013.85 1013.87 1013.92
1005.04 1005.78 1006.52 1007.16 1007.68 1008.06 1008.37 1008.64 1008.96 1009.33 1009.78 1010.27 1010.77 1011.22 1011.57 1011.81 1011.93 1011.98 1011.99 1012.00 1012.07 1012.19 1012.38 1012.61 1012.84 1013.04 1013.19 1013.26 1013.28 1013.26 1013.24 1013.25 1013.31 1013.42 1013.56 1013.74 1013.90 1014.04 1014.13 1014.18 1014.21 1014.23 1014.28
1004.16 1004.92 1005.70 1006.42 1007.02 1007.48 1007.86 1008.19 1008.54 1008.96 1009.44 1009.97 1010.51 1011.01 1011.42 1011.72 1011.91 1012.01 1012.06 1012.10 1012.18 1012.31 1012.51 1012.76 1013.02 1013.25 1013.45 1013.57 1013.64 1013.67 1013.68 1013.70 1013.74 1013.83 1013.94 1014.07 1014.20 1014.30 1014.37 1014.41 1014.43 1014.45 1014.50
1003.37 1004.11 1004.90 1005.66 1006.31 1006.84 1007.28 1007.67 1008.07 1008.53 1009.05 1009.63 1010.21 1010.76 1011.23 1011.59 1011.83 1011.97 1012.05 1012.12 1012.21 1012.36 1012.57 1012.84 1013.13 1013.41 1013.66 1013.85 1013.98 1014.07 1014.11 1014.15 1014.19 1014.25 1014.32 1014.40 1014.47 1014.52 1014.56 1014.57 1014.58 1014.60 1014.65
1002.70 1003.39 1004.17 1004.93 1005.61 1006.19 1006.68 1007.13 1007.60 1008.10 1008.67 1009.29 1009.91 1010.50 1011.02 1011.42 1011.70 1011.88 1011.99 1012.08 1012.19 1012.35 1012.58 1012.87 1013.20 1013.53 1013.84 1014.11 1014.31 1014.45 1014.55 1014.61 1014.65 1014.68 1014.71 1014.74 1014.76 1014.76 1014.76 1014.74 1014.74 1014.75 1014.80
1002.14 1002.78 1003.52 1004.27 1004.97 1005.58 1006.12 1006.63 1007.15 1007.71 1008.33 1008.98 1009.64 1010.27 1010.81 1011.25 1011.56 1011.77 1011.91 1012.03 1012.16 1012.34 1012.59 1012.91 1013.27 1013.66 1014.03 1014.36 1014.63 1014.84 1014.98 1015.07 1015.12 1015.14 1015.14 1015.13 1015.10 1015.07 1015.03 1014.99 1014.98 1014.99 1015.05
1001.66 1002.26 1002.97 1003.70 1004.40 1005.04 1005.63 1006.19 1006.77 1007.39 1008.05 1008.74 1009.42 1010.07 1010.64 1011.10 1011.45 1011.69 1011.86 1012.01 1012.17 1012.38 1012.66 1013.01 1013.41 1013.84 1014.26 1014.65 1014.98 1015.23 1015.42 1015.54 1015.60 1015.62 1015.61 1015.58 1015.52 1015.46 1015.40 1015.35 1015.33 1015.35 1015.41
1001.23 1001.80 1002.48 1003.19 1003.90 1004.57 1005.20 1005.83 1006.46 1007.13 1007.83 1008.55 1009.27 1009.93 1010.52 1011.01 1011.38 1011.66 1011.88 1012.06 1012.27 1012.52 1012.83 1013.21 1013.64 1014.10 1014.56 1014.98 1015.34 1015.64 1015.85 1016.00 1016.08 1016.11 1016.10 1016.06 1016.00 1015.93 1015.86 1015.81 1015.79 1015.81 1015.86
1000.80 1001.35 1002.01 1002.72 1003.44 1004.14 1004.83 1005.51 1006.21 1006.93 1007.67 1008.42 1009.15 1009.83 1010.44 1010.95 1011.37 1011.70 1011.97 1012.22 1012.48 1012.78 1013.13 1013.54 1013.99 1014.47 1014.93 1015.36 1015.73 1016.03 1016.26 1016.42 1016.51 1016.56 1016.56 1016.53 1016.48 1016.42 1016.36 1016.32 1016.30 1016.31 1016.36
1000.34 1000.89 1001.55 1002.27 1003.01 1003.75 1004.49 1005.23 1005.98 1006.75 1007.52 1008.30 1009.05 1009.75 1010.39 1010.94 1011.40 1011.79 1012.13 1012.46 1012.79 1013.14 1013.54 1013.98 1014.44 1014.90 1015.35 1015.76 1016.11 1016.40 1016.62 1016.77 1016.87 1016.93 1016.95 1016.94 1016.92 1016.88 1016.84 1016.80 1016.78 1016.79 1016.82
999.86 1000.42 1001.08 1001.81 1002.58 1003.37 1004.16 1004.96 1005.76 1006.57 1007.38 1008.18 1008.95 1009.67 1010.33 1010.92 1011.45 1011.91 1012.34 1012.75 1013.16 1013.58 1014.02 1014.47 1014.93 1015.37 1015.78 1016.14 1016.45 1016.69 1016.89 1017.03 1017.13 1017.20 1017.24 1017.26 1017.27 1017.26 1017.24 1017.21 1017.19 1017.18 1017.19
999.40 999.95 1000.62 1001.37 1002.18 1003.01 1003.85 1004.70 1005.55 1006.40 1007.24 1008.05 1008.84 1009.58 1010.27 1010.91 1011.49 1012.03 1012.55 1013.04 1013.53 1014.01 1014.49 1014.95 1015.39 1015.80 1016.15 1016.46 1016.71 1016.90 1017.06 1017.18 1017.28 1017.36 1017.42 1017.48 1017.51 1017.53 1017.53 1017.52 1017.50 1017.47 1017.45
999.00 999.55 1000.23 1001.00 1001.84 1002.71 1003.60 1004.50 1005.38 1006.26 1007.11 1007.93 1008.72 1009.48 1010.19 1010.87 1011.51 1012.13 1012.72 1013.29 1013.85 1014.38 1014.89 1015.36 1015.78 1016.14 1016.44 1016.68 1016.87 1017.01 1017.13 1017.23 1017.33 1017.42 1017.51 1017.59 1017.66 1017.71 1017.73 1017.72 1017.70 1017.66 1017.61
998.73 999.27 999.96 1000.75 1001.62 1002.53 1003.46 1004.39 1005.30 1006.18 1007.04 1007.86 1008.65 1009.40 1010.13 1010.83 1011.51 1012.18 1012.83 1013.46 1014.07 1014.64 1015.16 1015.63 1016.03 1016.35 1016.61 1016.80 1016.94 1017.05 1017.14 1017.23 1017.32 1017.43 1017.54 1017.65 1017.74 1017.81 1017.85 1017.85 1017.82 1017.76 1017.68
998.64 999.18 999.88 1000.69 1001.59 1002.53 1003.48 1004.43 1005.35 1006.23 1007.07 1007.87 1008.64 1009.38 1010.10 1010.81 1011.51 1012.20 1012.88 1013.55 1014.18 1014.77 1015.30 1015.76 1016.14 1016.44 1016.67 1016.83 1016.95 1017.04 1017.12 1017.20 1017.30 1017.42 1017.55 1017.68 1017.79 1017.87 1017.91 1017.91 1017.86 1017.78 1017.67
998.76 999.31 1000.02 1000.85 1001.77 1002.72 1003.69 1004.64 1005.55 1006.42 1007.24 1008.01 1008.74 1009.45 1010.15 1010.84 1011.53 1012.21 1012.89 1013.56 1014.20 1014.79 1015.31 1015.77 1016.14 1016.43 1016.65 1016.81 1016.92 1017.01 1017.10 1017.20 1017.31 1017.43 1017.57 1017.69 1017.80 1017.88 1017.90 1017.88 1017.81 1017.70 1017.56
999.10 999.66 1000.38 1001.23 1002.16 1003.12 1004.09 1005.03 1005.92 1006.75 1007.53 1008.26 1008.95 1009.61 1010.27 1010.92 1011.57 1012.23 1012.88 1013.53 1014.14 1014.72 1015.23 1015.68 1016.05 1016.35 1016.58 1016.75 1016.89 1017.00 1017.11 1017.21 1017.33 1017.45 1017.57 1017.67 1017.75 1017.79 1017.79 1017.73 1017.63 1017.48 1017.31
999.63 1000.20 1000.93 1001.79 1002.72 1003.68 1004.63 1005.54 1006.39 1007.18 1007.91 1008.59 1009.23 1009.84 1010.44 1011.04 1011.64 1012.25 1012.86 1013.46 1014.04 1014.59 1015.09 1015.53 1015.91 1016.23 1016.48 1016.69 1016.85 1016.99 1017.11 1017.23 1017.33 1017.43 1017.51 1017.56 1017.59 1017.57 1017.51 1017.40 1017.25 1017.07 1016.87
1000.28 1000.86 1001.61 1002.46 1003.37 1004.31 1005.22 1006.09 1006.90 1007.64 1008.31 1008.94 1009.52 1010.08 1010.62 1011.17 1011.72 1012.27 1012.83 1013.38 1013.92 1014.43 1014.91 1015.35 1015.73 1016.07 1016.35 1016.59 1016.79 1016.95 1017.08 1017.18 1017.26 1017.31 1017.32 1017.30 1017.25 1017.15 1017.02 1016.85 1016.65 1016.44 1016.21
1000.99 1001.58 1002.32 1003.15 1004.03 1004.92 1005.78 1006.59 1007.33 1008.01 1008.63 1009.20 1009.74 1010.25 1010.75 1011.25 1011.75 1012.25 1012.76 1013.26 1013.76 1014.24 1014.69 1015.12 1015.51 1015.86 1016.17 1016.44 1016.66 1016.83 1016.95 1017.03 1017.05 1017.03 1016.97 1016.86 1016.70 1016.52 1016.31 1016.08 1015.84 1015.60 1015.37
1001.68 1002.27 1002.99 1003.78 1004.60 1005.42 1006.20 1006.93 1007.61 1008.22 1008.79 1009.32 1009.81 1010.29 1010.76 1011.23 1011.69 1012.16 1012.62 1013.08 1013.54 1013.99 1014.42 1014.83 1015.23 1015.58 1015.91 1016.18 1016.41 1016.57 1016.67 1016.71 1016.67 1016.57 1016.42 1016.22 1015.98 1015.71 1015.44 1015.17 1014.91 1014.67 1014.45
Thickness
5824 5823 5821 5818 5813 5809 5805 5801 5798 5795 5793 5790 5788 5785 5784 5786 5787 5786 5786 5785 5784 5783 5781 5780 5778 5778 5775 5773 5773 5770 5768 5766 5766 5761 5758 5759 5761 5761 5760 5759 5757 5755 5753
5824 5821 5820 5818 5813 5808 5805 5802 5798 5796 5794 5791 5789 5788 5787 5787 5787 5786 5785 5784 5783 5783 5783 5779 5778 5777 5775 5773 5772 5770 5766 5765 5765 5759 5752 5747 5748 5753 5757 5756 5755 5754 5752
5825 5821 5819 5817 5815 5810 5806 5804 5800 5797 5795 5793 5791 5790 5787 5785 5784 5783 5783 5784 5783 5782 5781 5780 5778 5777 5775 5772 5771 5769 5766 5761 5763 5763 5756 5747 5740 5744 5749 5751 5752 5751 5750
5832 5826 5822 5818 5816 5813 5810 5806 5801 5798 5796 5793 5790 5786 5782 5779 5780 5782 5782 5782 5781 5781 5780 5779 5778 5776 5775 5773 5771 5770 5767 5763 5759 5761 5761 5759 5754 5744 5739 5744 5748 5749 5747
5838 5831 5827 5822 5820 5817 5813 5808 5803 5798 5796 5793 5791 5787 5783 5782 5783 5783 5781 5780 5780 5780 5779 5778 5777 5776 5774 5773 5771 5769 5767 5765 5761 5759 5758 5757 5755 5753 5742 5736 5740 5743 5745
5843 5837 5833 5828 5823 5820 5815 5810 5803 5798 5796 5793 5791 5787 5784 5782 5780 5779 5778 5777 5778 5778 5778 5777 5776 5774 5773 5772 5771 5769 5767 5765 5763 5761 5760 5757 5753 5749 5746 5740 5738 5737 5740
5845 5839 5833 5827 5823 5820 5816 5811 5804 5798 5796 5793 5791 5788 5786 5783 5780 5778 5777 5776 5776 5776 5776 5777 5775 5773 5772 5771 5770 5768 5767 5765 5763 5761 5760 5759 5757 5756 5751 5745 5740 5738 5739
5849 5842 5836 5831 5826 5822 5817 5813 5806 5800 5797 5794 5791 5789 5786 5784 5782 5780 5779 5777 5776 5777 5777 5776 5775 5773 5772 5771 5769 5768 5766 5765 5763 5762 5760 5758 5758 5757 5753 5748 5742 5736 5734
5851 5846 5841 5836 5831 5826 5821 5816 5809 5802 5799 5795 5792 5789 5786 5784 5783 5781 5780 5779 5778 5778 5776 5775 5774 5772 5771 5769 5768 5766 5764 5762 5761 5760 5759 5757 5757 5757 5755 5753 5748 5738 5729
5853 5849 5844 5839 5836 5831 5825 5819 5812 5806 5801 5797 5794 5791 5787 5785 5783 5781 5779 5779 5778 5777 5776 5774 5772 5770 5769 5768 5765 5764 5763 5761 5759 5759 5757 5755 5756 5755 5754 5752 5750 5745 5737
5853 5850 5846 5843 5838 5832 5827 5820 5814 5808 5803 5799 5795 5792 5788 5786 5784 5781 5779 5778 5777 5776 5774 5773 5770 5769 5767 5766 5764 5762 5761 5759 5757 5757 5755 5753 5754 5752 5752 5750 5748 5744 5740
5854 5853 5848 5842 5837 5831 5826 5820 5815 5809 5805 5801 5796 5792 5789 5786 5783 5781 5779 5777 5775 5774 5773 5771 5769 5768 5766 5764 5761 5759 5758 5756 5755 5753 5752 5751 5751 5749 5748 5746 5744 5741 5739
5853 5851 5846 5839 5834 5830 5825 5820 5815 5810 5806 5801 5796 5791 5787 5784 5781 5780 5778 5776 5774 5772 5771 5769 5767 5766 5764 5762 5760 5758 5756 5755 5753 5751 5748 5748 5747 5745 5744 5743 5740 5739 5738
5845 5845 5841 5837 5833 5828 5823 5818 5814 5811 5806 5801 5795 5789 5786 5783 5780 5779 5776 5774 5772 5770 5768 5767 5765 5764 5762 5761 5759 5756 5754 5752 5751 5750 5747 5746 5744 5742 5741 5740 5737 5735 5732
5836 5838 5836 5833 5829 5825 5820 5816 5812 5809 5805 5799 5793 5789 5786 5783 5780 5777 5774 5772 5770 5768 5766 5764 5763 5762 5760 5758 5756 5754 5753 5750 5748 5747 5746 5744 5742 5740 5738 5737 5734 5731 5727
5832 5833 5831 5828 5824 5821 5817 5814 5810 5807 5803 5796 5792 5789 5785 5781 5778 5775 5772 5770 5768 5766 5764 5761 5760 5758 5758 5755 5753 5751 5750 5749 5746 5744 5743 5742 5740 5737 5735 5732 5730 5727 5723
5828 5826 5825 5823 5820 5819 5816 5811 5808 5805 5800 5794 5790 5787 5783 5778 5775 5774 5770 5767 5765 5763 5760 5759 5757 5755 5752 5751 5749 5748 5747 5746 5744 5742 5740 5739 5739 5735 5731 5729 5726 5723 5720
5824 5822 5822 5819 5818 5817 5814 5810 5807 5802 5797 5792 5788 5785 5781 5776 5773 5771 5767 5765 5763 5760 5758 5756 5754 5751 5749 5747 5745 5743 5743 5742 5740 5739 5737 5734 5732 5730 5727 5725 5722 5719 5717
5821 5819 5819 5817 5814 5812 5810 5806 5802 5798 5794 5789 5786 5783 5779 5774 5770 5767 5765 5763 5760 5757 5755 5753 5751 5748 5745 5743 5741 5739 5739 5737 5736 5735 5734 5731 5728 5725 5722 5720 5716 5714 5712
5815 5813 5812 5810 5807 5806 5805 5800 5796 5793 5790 5788 5785 5782 5778 5773 5769 5765 5762 5760 5758 5755 5753 5750 5748 5746 5742 5739 5737 5734 5734 5732 5731 5730 5729 5726 5723 5720 5717 5714 5711 5707 5706
5806 5806 5803 5801 5799 5799 5797 5791 5790 5788 5788 5787 5783 5779 5775 5771 5767 5763 5760 5757 5754 5751 5749 5746 5745 5743 5740 5736 5733 5730 5728 5727 5726 5725 5723 5721 5717 5714 5711 5708 5706 5703 5701
5795 5795 5792 5791 5791 5792 5789 5785 5784 5785 5785 5782 5778 5775 5772 5769 5766 5759 5755 5753 5750 5746 5744 5741 5739 5738 5736 5733 5729 5726 5723 5722 5721 5719 5718 5715 5711 5708 5705 5703 5701 5699 5696
5784 5784 5782 5781 5782 5783 5782 5778 5778 5779 5777 5774 5771 5769 5767 5764 5761 5755 5751 5747 5744 5741 5739 5737 5734 5732 5731 5729 5725 5721 5718 5716 5713 5713 5710 5707 5704 5702 5699 5697 5695 5692 5689
5773 5773 5771 5770 5770 5773 5774 5773 5772 5771 5769 5766 5763 5761 5758 5756 5753 5750 5748 5743 5740 5737 5735 5732 5730 5728 5725 5722 5719 5716 5712 5709 5706 5705 5703 5700 5698 5695 5694 5692 5688 5685 5683
5762 5762 5760 5759 5760 5763 5764 5766 5766 5764 5760 5758 5756 5754 5752 5749 5744 5741 5739 5737 5735 5733 5730 5728 5726 5722 5719 5716 5713 5710 5707 5705 5702 5698 5697 5694 5691 5688 5687 5686 5684 5681 5678
5752 5751 5750 5751 5752 5753 5755 5757 5758 5756 5752 5749 5748 5747 5745 5741 5738 5734 5730 5728 5728 5726 5724 5722 5719 5716 5713 5710 5707 5703 5701 5698 5695 5691 5690 5688 5686 5683 5682 5680 5677 5675 5672